Weather in Verkhnyaya Balkariya

Russia / The Kabardino-Balkar Republic     43°07′23″N   43°27′21″E
temp.,
°C
wind,
m/s
gust,
m/s
humid.,
%
clouds,
%
prec.,
mm/h
press.,
hPa
HPBL,
m
2 march, tue
tue200:00−17sw4490100 0.0 103030
03:00−18sw3388100 0.1 103025
06:00−19sw337819 0.0 103122
09:00−13sw337510 0.0 1030139
12:00−10ssw237710 0.0 1027543
15:00−10ssw348127 0.1 1026548
18:00−15sw668944 0.1 102669
21:00−15sw778843 0.2 102898
3 march, wed
wed300:00−15sw888745 0.0 1027107
03:00−16sw998645 0.1 102596
06:00−17sw888463 0.0 102499
09:00−14sw898572 0.0 1023211
12:00−11sw678498 0.1 1021488
15:00−10sw568199 0.4 1020862
18:00−15ssw349683 0.4 102343
21:00−17sw448966 0.8 102631
4 march, thu
thu400:00−18sw559045 0.1 102850
03:00−19sw558435 0.1 102950
06:00−17sw55799 0.0 102934
09:00−10sw226814 0.0 102895
12:00−8s12770 0.0 1026326
15:00−8ssw347613 0.0 1024348
18:00−14sw55760 0.0 102547
21:00−15sw66700 0.0 102651
5 march, fri
fri500:00−14sw66447 0.0 102445
03:00−13sw44383 0.0 102326
06:00−13wsw33280 0.0 102221
09:00−7wsw11420 0.0 102142
12:00−4s11560 0.0 1019471
15:00−4ssw12764 0.0 1019380
18:00−10sw348858 0.0 102125
21:00−11sw554636 0.0 102334
6 march, sat
sat600:00−11sw66430 0.0 102237
03:00−10sw76331 0.0 102248
06:00−10sw763128 0.0 102146
09:00−6sw784934 0.0 1019136
12:00−3ssw78571 0.0 1016429
15:00−4ssw795750 0.0 1015465
18:00−9ssw786494 0.0 1015102
21:00−10ssw896494 0.0 1017152